Hourly Weather Rudnya

Today, 20 April, Tuesday

Time Temperature Precipitation Wind Pressure Humidity
00:00 +5°C° 0 mm 2 mps 742 mmHg 86%
01:00 +5°C° 0 mm 2 mps 742 mmHg 88%
02:00 +5°C° 0 mm 2 mps 741 mmHg 89%
03:00 +4°C° 0 mm 2 mps 741 mmHg 91%
04:00 +4°C° 0 mm 2 mps 741 mmHg 92%
05:00 +4°C° 0 mm 2 mps 741 mmHg 93%
06:00 +4°C° 0 mm 3 mps 741 mmHg 90%
07:00 +5°C° 0 mm 3 mps 741 mmHg 86%
08:00 +7°C° 0 mm 3 mps 741 mmHg 83%
09:00 +8°C° 0.2 mm 3 mps 741 mmHg 78%
10:00 +8°C° 0.2 mm 4 mps 740 mmHg 73%
11:00 +10°C° 0.2 mm 4 mps 740 mmHg 68%
12:00 +10°C° 0.1 mm 4 mps 740 mmHg 65%
13:00 +11°C° 0.1 mm 4 mps 740 mmHg 62%
14:00 +11°C° 0.1 mm 4 mps 739 mmHg 58%
15:00 +11°C° 0.1 mm 4 mps 739 mmHg 60%
16:00 +10°C° 0.1 mm 4 mps 739 mmHg 62%
17:00 +10°C° 0.1 mm 3 mps 739 mmHg 64%
18:00 +9°C° 0.1 mm 3 mps 739 mmHg 71%
19:00 +7°C° 0.1 mm 3 mps 739 mmHg 77%
20:00 +6°C° 0.1 mm 2 mps 739 mmHg 83%
21:00 +6°C° 0 mm 2 mps 739 mmHg 85%
22:00 +5°C° 0 mm 2 mps 739 mmHg 87%
23:00 +5°C° 0 mm 2 mps 739 mmHg 89%

Tomorrow, 21 April, Wednesday

Time Temperature Precipitation Wind Pressure Humidity
00:00 +5°C° 0 mm 2 mps 739 mmHg 88%
01:00 +5°C° 0 mm 2 mps 740 mmHg 88%
02:00 +5°C° 0 mm 2 mps 740 mmHg 87%
03:00 +5°C° 0 mm 2 mps 740 mmHg 88%
04:00 +4°C° 0 mm 2 mps 740 mmHg 90%
05:00 +4°C° 0 mm 2 mps 740 mmHg 91%
06:00 +5°C° 0 mm 2 mps 740 mmHg 86%
07:00 +5°C° 0 mm 3 mps 740 mmHg 80%
08:00 +7°C° 0 mm 3 mps 741 mmHg 74%
09:00 +8°C° 0.2 mm 3 mps 741 mmHg 73%
10:00 +9°C° 0.2 mm 3 mps 741 mmHg 71%
11:00 +9°C° 0.2 mm 3 mps 741 mmHg 70%
12:00 +10°C° 0.1 mm 4 mps 741 mmHg 67%
13:00 +11°C° 0.1 mm 4 mps 741 mmHg 64%
14:00 +12°C° 0.1 mm 4 mps 741 mmHg 62%
15:00 +12°C° 0.3 mm 4 mps 741 mmHg 64%
16:00 +11°C° 0.3 mm 4 mps 741 mmHg 67%
17:00 +11°C° 0.3 mm 4 mps 741 mmHg 69%
18:00 +10°C° 0.2 mm 4 mps 741 mmHg 74%
19:00 +10°C° 0.2 mm 4 mps 741 mmHg 79%
20:00 +9°C° 0.2 mm 3 mps 741 mmHg 83%
21:00 +8°C° 0 mm 3 mps 741 mmHg 85%
22:00 +7°C° 0 mm 3 mps 741 mmHg 87%
23:00 +7°C° 0 mm 3 mps 742 mmHg 88%

Day after tomorrow, 22 April, Thursday

Time Temperature Precipitation Wind Pressure Humidity
00:00 +7°C° 0 mm 3 mps 742 mmHg 88%
01:00 +5°C° 0 mm 3 mps 742 mmHg 88%
02:00 +5°C° 0 mm 3 mps 742 mmHg 88%
03:00 +5°C° 0 mm 3 mps 742 mmHg 88%
04:00 +5°C° 0 mm 3 mps 742 mmHg 89%
05:00 +5°C° 0 mm 3 mps 742 mmHg 89%
06:00 +7°C° 0 mm 3 mps 742 mmHg 82%
07:00 +8°C° 0 mm 4 mps 743 mmHg 76%
08:00 +11°C° 0 mm 4 mps 743 mmHg 69%
09:00 +12°C° 0 mm 4 mps 743 mmHg 65%
10:00 +13°C° 0 mm 5 mps 743 mmHg 61%
11:00 +14°C° 0 mm 5 mps 743 mmHg 57%
12:00 +15°C° 0.2 mm 5 mps 743 mmHg 57%
13:00 +15°C° 0.2 mm 5 mps 743 mmHg 57%
14:00 +15°C° 0.2 mm 5 mps 743 mmHg 57%
15:00 +15°C° 0.2 mm 5 mps 743 mmHg 59%
16:00 +15°C° 0.2 mm 4 mps 743 mmHg 61%
17:00 +16°C° 0.2 mm 3 mps 743 mmHg 63%
18:00 +13°C° 0 mm 3 mps 743 mmHg 68%
19:00 +12°C° 0 mm 3 mps 743 mmHg 73%
20:00 +10°C° 0 mm 3 mps 743 mmHg 78%
21:00 +10°C° 0 mm 3 mps 743 mmHg 79%
22:00 +9°C° 0 mm 3 mps 743 mmHg 80%
23:00 +9°C° 0 mm 3 mps 743 mmHg 81%

23 April, Friday

Time Temperature Precipitation Wind Pressure Humidity
00:00 +8°C° 0 mm 3 mps 743 mmHg 82%
01:00 +8°C° 0 mm 3 mps 742 mmHg 83%
02:00 +8°C° 0 mm 3 mps 742 mmHg 84%
03:00 +8°C° 0 mm 3 mps 742 mmHg 86%
04:00 +7°C° 0 mm 3 mps 742 mmHg 88%
05:00 +7°C° 0 mm 3 mps 742 mmHg 90%
06:00 +8°C° 0 mm 3 mps 742 mmHg 84%
07:00 +10°C° 0 mm 3 mps 742 mmHg 78%
08:00 +11°C° 0 mm 4 mps 742 mmHg 72%
09:00 +12°C° 0.1 mm 5 mps 742 mmHg 71%
10:00 +11°C° 0.1 mm 6 mps 742 mmHg 70%
11:00 +11°C° 0.1 mm 7 mps 742 mmHg 69%
12:00 +8°C° 0.4 mm 6 mps 743 mmHg 77%
13:00 +5°C° 0.4 mm 6 mps 744 mmHg 84%
14:00 +2°C° 0.4 mm 6 mps 744 mmHg 92%
15:00 +2°C° 0.6 mm 5 mps 744 mmHg 89%
16:00 +4°C° 0.6 mm 4 mps 744 mmHg 85%
17:00 +5°C° 0.6 mm 3 mps 744 mmHg 81%
18:00 +6°C° 0 mm 2 mps 745 mmHg 84%
19:00 +5°C° 0 mm 2 mps 745 mmHg 86%
20:00 +5°C° 0 mm 2 mps 745 mmHg 88%
21:00 +5°C° 0 mm 2 mps 745 mmHg 86%
22:00 +4°C° 0 mm 3 mps 745 mmHg 85%
23:00 +4°C° 0 mm 3 mps 746 mmHg 84%

24 April, Saturday

Time Temperature Precipitation Wind Pressure Humidity
00:00 +3°C° 0 mm 3 mps 746 mmHg 85%
01:00 +2°C° 0 mm 3 mps 746 mmHg 86%
02:00 +1°C° 0 mm 3 mps 746 mmHg 88%
03:00 +1°C° 0 mm 3 mps 746 mmHg 90%
04:00 0°C° 0 mm 4 mps 746 mmHg 91%
05:00 -1°C° 0 mm 4 mps 746 mmHg 93%
06:00 0°C° 0 mm 4 mps 746 mmHg 86%
07:00 +1°C° 0 mm 5 mps 746 mmHg 79%
08:00 +2°C° 0 mm 5 mps 747 mmHg 72%
09:00 +3°C° 0 mm 5 mps 747 mmHg 63%
10:00 +5°C° 0 mm 5 mps 747 mmHg 53%
11:00 +6°C° 0 mm 5 mps 747 mmHg 44%
12:00 +7°C° 0 mm 5 mps 746 mmHg 42%
13:00 +8°C° 0 mm 4 mps 746 mmHg 39%
14:00 +8°C° 0 mm 4 mps 746 mmHg 37%
15:00 +9°C° 0 mm 3 mps 746 mmHg 38%
16:00 +9°C° 0 mm 3 mps 746 mmHg 38%
17:00 +9°C° 0 mm 3 mps 746 mmHg 39%
18:00 +8°C° 0 mm 2 mps 745 mmHg 44%
19:00 +6°C° 0 mm 2 mps 745 mmHg 50%
20:00 +5°C° 0 mm 2 mps 745 mmHg 55%
21:00 +3°C° 0 mm 3 mps 745 mmHg 58%
22:00 +3°C° 0 mm 3 mps 745 mmHg 61%
23:00 +3°C° 0 mm 3 mps 745 mmHg 64%

25 April, Sunday

Time Temperature Precipitation Wind Pressure Humidity
00:00 +3°C° 0 mm 4 mps 745 mmHg 69%
01:00 +3°C° 0 mm 4 mps 744 mmHg 73%
02:00 +3°C° 0 mm 4 mps 744 mmHg 78%
03:00 +3°C° 0 mm 4 mps 744 mmHg 83%
04:00 +1°C° 0 mm 4 mps 744 mmHg 87%
05:00 +1°C° 0 mm 4 mps 745 mmHg 92%
06:00 +1°C° 0 mm 5 mps 745 mmHg 86%
07:00 +2°C° 0 mm 5 mps 745 mmHg 80%
08:00 +2°C° 0 mm 5 mps 746 mmHg 74%
09:00 +3°C° 0 mm 5 mps 746 mmHg 64%
10:00 +4°C° 0 mm 6 mps 746 mmHg 54%
11:00 +5°C° 0 mm 6 mps 746 mmHg 44%
12:00 +7°C° 0 mm 6 mps 746 mmHg 44%
13:00 +7°C° 0 mm 6 mps 746 mmHg 44%
14:00 +6°C° 0 mm 7 mps 746 mmHg 44%
15:00 +7°C° 0.1 mm 6 mps 746 mmHg 48%
16:00 +7°C° 0.1 mm 6 mps 746 mmHg 51%
17:00 +5°C° 0.1 mm 6 mps 746 mmHg 54%
18:00 +5°C° 0 mm 5 mps 746 mmHg 60%
19:00 +4°C° 0 mm 4 mps 747 mmHg 65%
20:00 +3°C° 0 mm 3 mps 747 mmHg 71%
21:00 +2°C° 0 mm 3 mps 747 mmHg 74%
22:00 0°C° 0 mm 4 mps 747 mmHg 76%
23:00 0°C° 0 mm 4 mps 747 mmHg 79%
Show more